THOR ABLESTAR DEB, 660

Orbit data source: Space-Track

THOR ABLESTAR DEB, 660 is space debris in LEO originally from a launch on Thu, 29 Jun 1961 UTC launched from the Air Force Eastern Test Range (AFETR). Debris objects in space refer to the collection of defunct objects orbiting the Earth. Examples of debris include non-operational satellites, rocket bodies, and fragments generated from explosions, collisions, or faulty payload assembly.

Loading next visibility...
Identifier
660, 1961-015HM
Orbit
LEO
Country
Flag of USUS
Related business
Manufacturer
Unknown
Mission
Spacecraft
Bus & Motor
Unknown
Mass
Unknown
Launch date (UTC)
1961-06-29 (64 years ago)
Launch vehicle
Unknown
Launch site
Air Force Eastern Test Range (AFETR)
Object type
Payload
Rocket body
Debris
Shape & HBR
Unknown shape, 0.1 m
Radar Cross Section
Small (<0.1 m²)

Expand to show TLE details & history
Last TLE update: 23 hours ago

TLE from 23 hours ago
0 THOR ABLESTAR DEB
1 00660U 61015HM  25291.09795936  .00046726  00000-0  35883-2 0  9996
2 00660  66.4990 173.2304 0016109 333.6001 145.0958 15.01392831348865
Epoch: 2025-10-18T02:21Z
TLE epoch observation values (Epoch: 2025-10-18T02:21:03.688Z)
Latitude
53.59932°
Longitude
-104.78215°
Altitude
579.702 km
Speed
7.571 km/s
True Right ascension
21h 09m 16s
True Declination
53° 25' 50"
Sunlit
Object was in daylight at epoch
Visualization orbit readout
Latitude
Unknown
Longitude
Unknown
Altitude
Unknown
Speed
Unknown
Apparent Right ascension
Unknown
Apparent Declination
Unknown
Sunlit
N/A
Visualization observer readout
Local Sidereal Time
20:04:14
Azimuth
Unknown
Elevation
Unknown
Doppler factor
Unknown
Orbital elements
Apogee altitude
572.124 km
Perigee altitude
549.768 km
Semi-major axis
6,939.083 km
Eccentricity
0.00161
Inclination
66.499°
RAAN
173.2304°
Arg. of periapsis
333.6001°
True anomaly
145.20125°
Mean anomaly
145.0958°
Eccentric anomaly
145.14854°
Mean motion
3.75483 °/min
Orbital period
95.88 mins
BSTAR
0.0035883

Documentation

Showing up to 5 results
|